Skip Page Navigation
NASA JPL Caltech
NASA Logo - Jet Propulsion Laboratory + View the NASA Portal
+ Center for Near-Earth Object Studies
JPL Home Earth Solar System Stars & Galaxies Technology
JPL Solar System Dynamics
BODIES ORBITS EPHEMERIDES TOOLS PHYSICAL DATA DISCOVERY FAQ SITE MAP
JPL Small-Body Database Browser
Search: [ help ]  
(2020 RV5)
Classification: Amor [NEO]          SPK-ID: 54054277
Ephemeris | Orbit Diagram | Orbital Elements | Mission Design | Physical Parameters | Close-Approach Data ]

[ show orbit diagram ]
Orbital Elements at Epoch 2459000.5 (2020-May-31.0) TDB
Reference: JPL 18 (heliocentric ecliptic J2000)
 Element Value Uncertainty (1-sigma)   Units 
e .5761131218261464 1.2276e-05  
a 2.503774537974424 7.5292e-05 au
q 1.061317172553161 1.1803e-06 au
i 2.754471038885312 4.1759e-05 deg
node 196.6537612862672 3.1699e-05 deg
peri 188.6416943125287 2.5044e-05 deg
M 324.9275727392662 0.0015843 deg
tp 2459141.479049169667
(2020-Oct-18.97904917)
1.9972e-05 TDB
period 1447.075713459431
3.96
0.065273
0.0001787
d
yr
n .248777584097083 1.1222e-05 deg/d
Q 3.946231903395687 0.00011867 au
  Orbit Determination Parameters
   # obs. used (total)      124  
   data-arc span      74 days  
   first obs. used      2020-08-12  
   last obs. used      2020-10-25  
   planetary ephem.      DE431  
   SB-pert. ephem.      SB431-N16  
   condition code      5  
   norm. resid. RMS      .5371  
   source      ORB  
   producer      Otto Matic  
   solution date      2020-Oct-26 06:51:18  

Additional Information
 Earth MOID = .0656329 au 
 Jupiter MOID = 1.5111 au 
 T_jup = 3.211 
[ show covariance matrix ]

Ephemeris | Orbit Diagram | Orbital Elements | Mission Design | Physical Parameters | Close-Approach Data ]

Physical Parameter Table
Parameter Symbol Value Units Sigma Reference Notes
absolute magnitude H 23.944   .42248 18 autocmod 2.8

[ show close-approach data ]
Ephemeris | Orbit Diagram | Orbital Elements | Mission Design | Physical Parameters | Close-Approach Data ]
ABOUT SSD CREDITS/AWARDS PRIVACY/COPYRIGHT GLOSSARY LINKS
FirstGov 2020-Oct-27 10:39 UT
(server date/time)  
NASA Home Page
Site Manager:   Ryan S. Park
Webmaster  Alan B. Chamberlin